Davis Monthan Air Force Base
KDMA : now visible

Airfield :











YOU CAN JOIN US ON...

 
LOGIN :

Register | Disclaimer

   EN    FR    IT 

 









Legend :    VFR   Marginal VFR   IFR   Intensive IFR   Very Intensive IFR
Visi :
Ceiling :
>= 8 km
>= 3000ft
5 to 8 km
1000 to 3000 ft
1500m to 5 km
500 to 1000 ft
800 to 1500m
200 to 500 ft
< 800m
< 200 ft
Symbols :   Thunderstorms  Fog  Heavy snow  Heavy precipitations  Wind > 20 kt






- Airport Elevation : 2704 ft


KDMA - Davis Monthan Air Force Base

METAR N/A
TAF TAF KDMA
Valid from the 28 at 06:00 until the 29 at 12:00 UTC


280604Z 2806/2912 VRB06KT 9999 SCT200 QNH2989INS
BECMG 2819/2820 23012G18KT 9999 FEW180 QNH2980INS
TEMPO 2820/2824 22015G25KT
BECMG 2901/2902 22009KT 9999 SKC QNH2981INS TX21/2821Z TN03/2814Z
KZAB FIR / North America



MET'MAP, your aeronautical weather chart ! - Copyright ORBIFLY December 2007 - Disclaimer

ORBIFLY MET'MAP TEAM :

Programming & Development : Alexandra Zaïnal
Original concept : Baudouin d'Aumeries
Technical & hardware support : Manuel Goepfert
Assistance : Marc-Olivier Méhu




SOURCES & CREDITS :

   NOAA       Earth
Advisory